When you browse on this site, cookies collect data to enhance your experience and personalize the content and advertising you see.
Visit our Privacy Policy to learn more. By continuing to use the site, you agree to this use of cookies and data.
  • In Netherlands
  • List of Countries
  • For 7 days
  • Water Temperature
  • Satellite Maps
  • Weather Map
  • Weather Widgets
  • user-avatar
    Login

    Hourly Weather Mochudi

    Today, 21 May, Tuesday

    Time Temperature Precipitation Wind Pressure Humidity
    00:00 +19°C° 0 mm 1 mps 681 mmHg 32%
    01:00 +16°C° 0 mm 0 mps 681 mmHg 33%
    02:00 +15°C° 0 mm 0 mps 681 mmHg 33%
    03:00 +15°C° 0 mm 0 mps 681 mmHg 34%
    04:00 +14°C° 0 mm 0 mps 681 mmHg 36%
    05:00 +14°C° 0 mm 0 mps 681 mmHg 37%
    06:00 +15°C° 0 mm 0 mps 682 mmHg 36%
    07:00 +16°C° 0 mm 0 mps 682 mmHg 34%
    08:00 +17°C° 0 mm 0 mps 683 mmHg 31%
    09:00 +22°C° 0 mm 1 mps 683 mmHg 27%
    10:00 +24°C° 0 mm 1 mps 684 mmHg 23%
    11:00 +27°C° 0 mm 1 mps 684 mmHg 20%
    12:00 +28°C° 0 mm 1 mps 684 mmHg 18%
    13:00 +29°C° 0 mm 1 mps 684 mmHg 17%
    14:00 +30°C° 0 mm 1 mps 683 mmHg 16%
    15:00 +30°C° 0 mm 1 mps 683 mmHg 17%
    16:00 +29°C° 0 mm 1 mps 683 mmHg 18%
    17:00 +28°C° 0 mm 1 mps 682 mmHg 19%
    18:00 +26°C° 0 mm 1 mps 682 mmHg 21%
    19:00 +24°C° 0 mm 1 mps 682 mmHg 23%
    20:00 +23°C° 0 mm 1 mps 682 mmHg 25%
    21:00 +20°C° 0 mm 0 mps 682 mmHg 26%
    22:00 +20°C° 0 mm 0 mps 683 mmHg 27%
    23:00 +19°C° 0 mm 0 mps 683 mmHg 28%

    Tomorrow, 22 May, Wednesday

    Time Temperature Precipitation Wind Pressure Humidity
    00:00 +20°C° 0 mm 1 mps 683 mmHg 29%
    01:00 +20°C° 0 mm 1 mps 683 mmHg 30%
    02:00 +18°C° 0 mm 2 mps 682 mmHg 32%
    03:00 +17°C° 0 mm 2 mps 682 mmHg 33%
    04:00 +17°C° 0 mm 2 mps 682 mmHg 35%
    05:00 +16°C° 0 mm 2 mps 682 mmHg 37%
    06:00 +16°C° 0 mm 2 mps 683 mmHg 37%
    07:00 +17°C° 0 mm 3 mps 684 mmHg 38%
    08:00 +17°C° 0 mm 3 mps 684 mmHg 38%
    09:00 +20°C° 0 mm 4 mps 685 mmHg 37%
    10:00 +22°C° 0 mm 4 mps 685 mmHg 35%
    11:00 +25°C° 0 mm 4 mps 686 mmHg 33%
    12:00 +27°C° 0 mm 4 mps 685 mmHg 30%
    13:00 +28°C° 0 mm 4 mps 685 mmHg 27%
    14:00 +29°C° 0 mm 3 mps 684 mmHg 24%
    15:00 +28°C° 0 mm 3 mps 684 mmHg 25%
    16:00 +28°C° 0 mm 3 mps 684 mmHg 26%
    17:00 +27°C° 0 mm 2 mps 684 mmHg 26%
    18:00 +25°C° 0 mm 2 mps 684 mmHg 31%
    19:00 +24°C° 0 mm 2 mps 684 mmHg 35%
    20:00 +21°C° 0 mm 2 mps 684 mmHg 39%
    21:00 +20°C° 0 mm 2 mps 684 mmHg 44%
    22:00 +19°C° 0 mm 2 mps 684 mmHg 49%
    23:00 +19°C° 0 mm 2 mps 684 mmHg 53%

    Day after tomorrow, 23 May, Thursday

    Time Temperature Precipitation Wind Pressure Humidity
    00:00 +18°C° 0 mm 2 mps 684 mmHg 57%
    01:00 +18°C° 0 mm 1 mps 684 mmHg 60%
    02:00 +18°C° 0 mm 1 mps 684 mmHg 63%
    03:00 +16°C° 0 mm 1 mps 683 mmHg 66%
    04:00 +16°C° 0 mm 1 mps 683 mmHg 69%
    05:00 +15°C° 0 mm 1 mps 683 mmHg 72%
    06:00 +16°C° 0 mm 1 mps 683 mmHg 71%
    07:00 +16°C° 0 mm 1 mps 684 mmHg 70%
    08:00 +18°C° 0 mm 1 mps 684 mmHg 69%
    09:00 +19°C° 0 mm 2 mps 685 mmHg 60%
    10:00 +23°C° 0 mm 2 mps 685 mmHg 51%
    11:00 +25°C° 0 mm 3 mps 686 mmHg 41%
    12:00 +27°C° 0 mm 3 mps 685 mmHg 36%
    13:00 +28°C° 0 mm 3 mps 685 mmHg 30%
    14:00 +29°C° 0 mm 3 mps 684 mmHg 24%
    15:00 +29°C° 0 mm 2 mps 684 mmHg 24%
    16:00 +28°C° 0 mm 2 mps 684 mmHg 24%
    17:00 +28°C° 0 mm 2 mps 683 mmHg 25%
    18:00 +26°C° 0 mm 1 mps 683 mmHg 28%
    19:00 +24°C° 0 mm 1 mps 684 mmHg 32%
    20:00 +20°C° 0 mm 0 mps 684 mmHg 35%
    21:00 +22°C° 0 mm 1 mps 684 mmHg 35%
    22:00 +23°C° 0 mm 1 mps 685 mmHg 36%
    23:00 +23°C° 0 mm 2 mps 685 mmHg 36%

    24 May, Friday

    Time Temperature Precipitation Wind Pressure Humidity
    00:00 +21°C° 0 mm 2 mps 685 mmHg 37%
    01:00 +22°C° 0 mm 1 mps 685 mmHg 39%
    02:00 +22°C° 0 mm 1 mps 685 mmHg 40%
    03:00 +20°C° 0 mm 1 mps 684 mmHg 43%
    04:00 +19°C° 0 mm 1 mps 684 mmHg 46%
    05:00 +18°C° 0 mm 1 mps 684 mmHg 50%
    06:00 +19°C° 0 mm 1 mps 685 mmHg 50%
    07:00 +19°C° 0 mm 1 mps 685 mmHg 51%
    08:00 +19°C° 0 mm 1 mps 686 mmHg 52%
    09:00 +20°C° 0 mm 2 mps 686 mmHg 48%
    10:00 +24°C° 0 mm 3 mps 687 mmHg 44%
    11:00 +26°C° 0 mm 3 mps 687 mmHg 40%
    12:00 +27°C° 0 mm 3 mps 687 mmHg 36%
    13:00 +28°C° 0 mm 2 mps 686 mmHg 32%
    14:00 +29°C° 0 mm 2 mps 686 mmHg 28%
    15:00 +28°C° 0 mm 2 mps 685 mmHg 29%
    16:00 +28°C° 0 mm 2 mps 685 mmHg 29%
    17:00 +27°C° 0 mm 1 mps 685 mmHg 29%
    18:00 +25°C° 0 mm 2 mps 685 mmHg 35%
    19:00 +24°C° 0 mm 3 mps 685 mmHg 41%
    20:00 +21°C° 0 mm 3 mps 685 mmHg 47%
    21:00 +20°C° 0.3 mm 3 mps 686 mmHg 54%
    22:00 +19°C° 0.3 mm 2 mps 686 mmHg 62%
    23:00 +18°C° 0.3 mm 2 mps 686 mmHg 70%

    25 May, Saturday

    Time Temperature Precipitation Wind Pressure Humidity
    00:00 +17°C° 0 mm 2 mps 686 mmHg 72%
    01:00 +17°C° 0 mm 2 mps 685 mmHg 74%
    02:00 +16°C° 0 mm 1 mps 685 mmHg 76%
    03:00 +16°C° 0 mm 1 mps 685 mmHg 79%
    04:00 +15°C° 0 mm 1 mps 685 mmHg 82%
    05:00 +15°C° 0 mm 1 mps 685 mmHg 85%
    06:00 +15°C° 0 mm 1 mps 686 mmHg 83%
    07:00 +16°C° 0 mm 1 mps 686 mmHg 81%
    08:00 +15°C° 0 mm 0 mps 687 mmHg 79%
    09:00 +19°C° 0 mm 1 mps 687 mmHg 69%
    10:00 +20°C° 0 mm 2 mps 687 mmHg 60%
    11:00 +23°C° 0 mm 2 mps 687 mmHg 50%
    12:00 +24°C° 0 mm 2 mps 687 mmHg 44%
    13:00 +26°C° 0 mm 2 mps 686 mmHg 39%
    14:00 +27°C° 0 mm 2 mps 685 mmHg 33%
    15:00 +26°C° 0 mm 2 mps 685 mmHg 33%
    16:00 +26°C° 0 mm 2 mps 685 mmHg 32%
    17:00 +26°C° 0 mm 2 mps 685 mmHg 31%
    18:00 +24°C° 0 mm 2 mps 685 mmHg 35%
    19:00 +21°C° 0 mm 2 mps 685 mmHg 38%
    20:00 +21°C° 0 mm 1 mps 685 mmHg 41%
    21:00 +20°C° 0 mm 1 mps 685 mmHg 42%
    22:00 +20°C° 0 mm 1 mps 685 mmHg 42%
    23:00 +19°C° 0 mm 1 mps 685 mmHg 43%

    26 May, Sunday

    Time Temperature Precipitation Wind Pressure Humidity
    00:00 +19°C° 0 mm 1 mps 684 mmHg 44%
    01:00 +18°C° 0 mm 1 mps 684 mmHg 46%
    02:00 +16°C° 0 mm 0 mps 684 mmHg 47%
    03:00 +16°C° 0 mm 1 mps 684 mmHg 48%
    04:00 +16°C° 0 mm 1 mps 684 mmHg 50%
    05:00 +15°C° 0 mm 1 mps 684 mmHg 51%
    06:00 +16°C° 0 mm 1 mps 684 mmHg 51%
    07:00 +16°C° 0 mm 1 mps 685 mmHg 50%
    08:00 +16°C° 0 mm 1 mps 685 mmHg 50%
    09:00 +20°C° 0 mm 1 mps 686 mmHg 44%
    10:00 +21°C° 0 mm 2 mps 686 mmHg 38%
    11:00 +24°C° 0 mm 2 mps 687 mmHg 32%
    12:00 +26°C° 0 mm 1 mps 686 mmHg 30%
    13:00 +27°C° 0 mm 1 mps 685 mmHg 28%
    14:00 +26°C° 0 mm 0 mps 685 mmHg 25%
    15:00 +27°C° 0 mm 1 mps 685 mmHg 26%
    16:00 +27°C° 0 mm 1 mps 684 mmHg 27%
    17:00 +26°C° 0 mm 1 mps 684 mmHg 27%
    18:00 +24°C° 0 mm 1 mps 684 mmHg 30%
    19:00 +23°C° 0 mm 1 mps 684 mmHg 33%
    20:00 +21°C° 0 mm 1 mps 684 mmHg 36%
    21:00 +21°C° 0 mm 1 mps 684 mmHg 37%
    22:00 +20°C° 0 mm 1 mps 684 mmHg 39%
    23:00 +19°C° 0 mm 1 mps 683 mmHg 40%
    Show more